DW3823 Weather Reports


Display with metric or nautical units.
time (UTC)temp
F
wind
direction
speed
MPH
gust
MPH
rain 1hr
in
rain 24hr
in
rain mn
in
humidity
%
barometer
mb
20260505173526 72 98 4.0 16.0 0.00 0.00 0.00 55 1012.4
20260505173025 72 236 4.0 9.0 0.00 0.00 0.00 54 1012.4
20260505172524 72 252 3.0 11.0 0.00 0.00 0.00 55 1012.4
20260505172024 72 282 4.0 11.0 0.00 0.00 0.00 56 1012.6
20260505171523 72 330 5.0 11.0 0.00 0.00 0.00 54 1012.6
20260505171022 72 212 3.0 11.0 0.00 0.00 0.00 57 1012.6
20260505170521 71 256 3.0 11.0 0.00 0.00 0.00 57 1012.7
20260505170021 71 265 5.0 11.0 0.00 0.00 0.00 56 1012.7
20260505165520 71 213 6.0 13.0 0.00 0.00 0.00 56 1012.8
20260505165020 72 147 5.0 11.0 0.00 0.00 0.00 57 1012.8
20260505164519 71 194 3.0 11.0 0.00 0.00 0.00 57 1013.0
20260505164018 71 159 3.0 10.0 0.00 0.00 0.00 60 1013.1
20260505163519 70 108 4.0 11.0 0.00 0.00 0.00 59 1013.2
20260505163017 71 177 4.0 14.0 0.00 0.00 0.00 58 1013.5
20260505162516 71 222 1.0 11.0 0.00 0.00 0.00 60 1013.5
20260505162016 70 269 3.0 11.0 0.00 0.00 0.00 59 1013.5
20260505161516 71 151 4.0 14.0 0.00 0.00 0.00 59 1013.6
20260505161015 71 144 4.0 14.0 0.00 0.00 0.00 60 1013.5
20260505160514 71 165 5.0 13.0 0.00 0.00 0.00 59 1013.4
20260505153006 68 148 2.0 9.0 0.00 0.00 0.00 62 1013.2
20260505152504 67 205 3.0 9.0 0.00 0.00 0.00 64 1013.1
20260505152003 67 232 2.0 12.0 0.00 0.00 0.00 63 1013.1
20260505151503 67 271 4.0 12.0 0.00 0.00 0.00 63 1013.2
20260505151003 67 170 2.0 9.0 0.00 0.00 0.00 64 1013.2
20260505150503 67 248 1.0 9.0 0.00 0.00 0.00 65 1013.2
20260505140555 66 242 1.0 9.0 0.00 0.00 0.00 64 1012.6
20260505124548 62 163 3.0 6.0 0.00 0.00 0.00 63 1013.0
20260505124040 62 180 2.0 6.0 0.00 0.00 0.00 64 1013.0
20260505123542 62 199 0.0 4.0 0.00 0.00 0.00 66 1012.9
20260505123038 62 124 1.0 6.0 0.00 0.00 0.00 65 1012.8
20260505122536 61 186 2.0 6.0 0.00 0.00 0.00 64 1012.6
20260505122036 61 192 1.0 6.0 0.00 0.00 0.00 66 1012.5
20260505121536 60 179 1.0 6.0 0.00 0.00 0.00 65 1012.5
20260505121034 60 158 2.0 5.0 0.00 0.00 0.00 66 1012.4
20260505120534 60 173 2.0 5.0 0.00 0.00 0.00 67 1012.3
20260505120042 59 178 0.0 4.0 0.00 0.00 0.00 69 1012.3
20260505115530 59 180 0.0 3.0 0.00 0.00 0.00 69 1012.2
20260505115032 59 180 0.0 3.0 0.00 0.00 0.00 69 1012.1
20260505114528 58 172 0.0 2.0 0.00 0.00 0.00 70 1012.1
20260505114026 58 172 0.0 2.0 0.00 0.00 0.00 71 1012.1
20260505113525 58 172 0.0 1.0 0.00 0.00 0.00 71 1012.1
20260505113025 58 172 0.0 2.0 0.00 0.00 0.00 71 1012.1
20260505112524 58 172 1.0 3.0 0.00 0.00 0.00 70 1012.0
20260505112023 57 174 0.0 3.0 0.00 0.00 0.00 70 1011.9
20260505111522 57 179 0.0 2.0 0.00 0.00 0.00 71 1011.8
20260505111024 56 179 0.0 0.0 0.00 0.00 0.00 72 1011.8
20260505110519 56 179 0.0 1.0 0.00 0.00 0.00 72 1011.8
20260505102016 54 177 0.0 0.0 0.00 0.00 0.00 76 1011.4
20260505101516 54 176 0.0 0.0 0.00 0.00 0.00 76 1011.2
20260505101015 54 177 0.0 0.0 0.00 0.00 0.00 77 1011.3
20260505100516 53 177 0.0 0.0 0.00 0.00 0.00 79 1011.2
20260505100014 53 177 0.0 0.0 0.00 0.00 0.00 78 1011.2
20260505095513 54 176 0.0 0.0 0.00 0.00 0.00 77 1011.2
20260505095013 54 177 0.0 0.0 0.00 0.00 0.00 77 1011.2
20260505094514 53 177 0.0 0.0 0.00 0.00 0.00 78 1011.2
20260505094015 53 177 0.0 0.0 0.00 0.00 0.00 79 1011.3
20260505093513 53 176 0.0 0.0 0.00 0.00 0.00 79 1011.4
20260505093013 53 177 0.0 2.0 0.00 0.00 0.00 78 1011.5
20260505092517 54 177 0.0 2.0 0.00 0.00 0.00 78 1011.6
20260505092013 54 177 0.0 2.0 0.00 0.00 0.00 78 1011.7
20260505091514 54 177 0.0 0.0 0.00 0.00 0.00 78 1011.5
20260505091012 53 176 0.0 0.0 0.00 0.00 0.00 78 1011.6
20260505090512 53 177 0.0 0.0 0.00 0.00 0.00 78 1011.4
20260505090011 53 177 0.0 0.0 0.00 0.00 0.00 78 1011.4
20260505085513 54 176 0.0 0.0 0.00 0.00 0.00 78 1011.4
20260505085009 54 176 0.0 0.0 0.00 0.00 0.00 76 1011.3
20260505084522 55 177 0.0 0.0 0.00 0.00 0.00 74 1011.2
20260505084005 56 177 0.0 1.0 0.00 0.00 0.00 72 1011.3
20260505083504 57 176 0.0 1.0 0.00 0.00 0.00 72 1011.3
20260505083005 57 177 0.0 2.0 0.00 0.00 0.00 71 1011.3
20260505082505 57 176 0.0 2.0 0.00 0.00 0.00 71 1011.3
20260505082003 57 175 0.0 1.0 0.00 0.00 0.00 71 1011.3
20260505081509 57 175 0.0 1.0 0.00 0.00 0.00 71 1011.3
20260505081005 57 175 0.0 1.0 0.00 0.00 0.00 71 1011.2
20260505080501 57 175 0.0 3.0 0.00 0.00 0.00 70 1011.1
20260505080115 58 175 0.0 5.0 0.00 0.00 0.00 70 1011.2
20260505075600 58 175 1.0 5.0 0.00 0.00 0.00 70 1011.1
20260505075104 58 192 0.0 2.0 0.00 0.00 0.00 71 1011.0
20260505074600 58 192 0.0 3.0 0.00 0.00 0.00 71 1011.0
20260505074100 58 191 0.0 3.0 0.00 0.00 0.00 70 1010.9
20260505073559 58 192 0.0 3.0 0.00 0.00 0.00 70 1010.9
20260505073102 58 192 0.0 3.0 0.00 0.00 0.00 70 1011.1
20260505072558 58 193 0.0 2.0 0.00 0.00 0.00 70 1011.0
20260505072057 58 193 0.0 2.0 0.00 0.00 0.00 71 1011.0
20260505071558 58 193 0.0 3.0 0.00 0.00 0.00 70 1011.1
20260505071055 58 193 1.0 3.0 0.00 0.00 0.00 70 1011.1
20260505070556 58 194 0.0 3.0 0.00 0.00 0.00 69 1011.5
20260505070052 58 238 0.0 2.0 0.00 0.00 0.00 70 1011.5
20260505065550 58 238 0.0 3.0 0.00 0.00 0.00 69 1011.6
20260505065049 58 238 0.0 3.0 0.00 0.00 0.00 69 1011.5
20260505064557 59 170 0.0 0.0 0.00 0.00 0.00 69 1011.6
20260505064047 59 170 0.0 1.0 0.00 0.00 0.00 68 1011.6
20260505063546 60 170 0.0 1.0 0.00 0.00 0.00 67 1011.7
20260505063045 60 170 0.0 2.0 0.00 0.00 0.00 66 1011.7
20260505062544 60 170 0.0 2.0 0.00 0.00 0.00 66 1011.7
20260505062042 61 171 0.0 5.0 0.00 0.00 0.00 64 1011.7
20260505061542 61 167 1.0 5.0 0.00 0.00 0.00 64 1011.7
20260505061043 61 180 0.0 3.0 0.00 0.00 0.00 63 1011.7
20260505060541 61 180 0.0 3.0 0.00 0.00 0.00 63 1011.9
20260505060041 61 181 0.0 3.0 0.00 0.00 0.00 63 1011.9
20260505055539 62 181 0.0 3.0 0.00 0.00 0.00 62 1011.9
20260505055038 62 238 0.0 4.0 0.00 0.00 0.00 62 1012.0
20260505054537 62 167 1.0 6.0 0.00 0.00 0.00 62 1012.0
20260505054038 62 216 1.0 5.0 0.00 0.00 0.00 61 1011.9
20260505053537 63 264 2.0 6.0 0.00 0.00 0.00 61 1011.9
20260505053059 63 211 0.0 4.0 0.00 0.00 0.00 61 1011.9
20260505052535 63 215 0.0 7.0 0.00 0.00 0.00 61 1011.9
20260505052037 63 186 2.0 8.0 0.00 0.00 0.00 60 1011.9
20260505051535 63 180 1.0 5.0 0.00 0.00 0.00 61 1011.8
20260505051035 63 199 1.0 6.0 0.00 0.00 0.00 61 1011.7
20260505050532 63 210 2.0 7.0 0.00 0.00 0.00 60 1011.8
20260505041540 65 226 1.0 4.0 0.00 0.00 0.00 57 1011.4
20260505041030 64 176 2.0 5.0 0.00 0.00 0.00 58 1011.4
20260505040530 65 228 1.0 10.0 0.00 0.00 0.00 57 1011.5
20260505040030 65 232 3.0 10.0 0.00 0.00 0.00 57 1011.3
20260505035531 65 199 2.0 8.0 0.00 0.00 0.00 58 1011.4
20260505035030 65 175 3.0 8.0 0.00 0.00 0.00 57 1011.4
20260505034532 65 197 2.0 8.0 0.00 0.00 0.00 58 1011.3
20260505034031 65 189 1.0 8.0 0.00 0.00 0.00 58 1011.3
20260505033531 65 167 2.0 8.0 0.00 0.00 0.00 58 1011.4
20260505033029 65 162 1.0 5.0 0.00 0.00 0.00 58 1011.3
20260505032528 65 226 1.0 8.0 0.00 0.00 0.00 58 1011.5
20260505032029 65 142 2.0 8.0 0.00 0.00 0.00 58 1011.4
20260505031528 65 178 1.0 8.0 0.00 0.00 0.00 58 1011.5
20260505031032 65 174 2.0 6.0 0.00 0.00 0.00 58 1011.5
20260505030530 65 194 2.0 6.0 0.00 0.00 0.00 58 1011.4
20260505030028 65 260 1.0 10.0 0.00 0.00 0.00 59 1011.5
20260505025528 65 186 4.0 10.0 0.00 0.00 0.00 59 1011.4
20260505025027 65 189 1.0 6.0 0.00 0.00 0.00 59 1011.3
20260505024527 66 173 1.0 6.0 0.00 0.00 0.00 59 1011.3
20260505024030 66 178 2.0 7.0 0.00 0.00 0.00 59 1011.2
20260505023527 66 229 2.0 8.0 0.00 0.00 0.00 58 1011.5
20260505023027 66 161 3.0 8.0 0.00 0.00 0.00 58 1011.6
20260505022527 66 178 2.0 5.0 0.00 0.00 0.00 57 1011.4
20260505022026 67 189 1.0 7.0 0.00 0.00 0.00 56 1011.7
20260505021530 67 197 1.0 8.0 0.00 0.00 0.00 56 1011.5
20260505021026 67 213 3.0 8.0 0.00 0.00 0.00 56 1011.4
20260505020526 67 247 1.0 6.0 0.00 0.00 0.00 55 1011.4
20260505020026 67 189 1.0 6.0 0.00 0.00 0.00 55 1011.4
20260505015526 68 184 1.0 6.0 0.00 0.00 0.00 54 1011.4
20260505015026 68 174 1.0 6.0 0.00 0.00 0.00 54 1011.3
20260505014525 68 201 1.0 6.0 0.00 0.00 0.00 53 1011.4
20260505014024 68 261 3.0 6.0 0.00 0.00 0.00 53 1011.3
20260505013527 68 243 1.0 4.0 0.00 0.00 0.00 53 1011.2
20260505013024 68 190 1.0 5.0 0.00 0.00 0.00 53 1011.3
20260505012526 69 271 1.0 5.0 0.00 0.00 0.00 52 1011.2
20260505012026 69 207 3.0 5.0 0.00 0.00 0.00 52 1011.3
20260505011544 69 159 1.0 5.0 0.00 0.00 0.00 52 1011.2
20260505011024 69 250 2.0 4.0 0.00 0.00 0.00 51 1011.2
20260505010527 70 169 2.0 8.0 0.00 0.00 0.00 51 1011.0
20260505010023 70 182 3.0 8.0 0.00 0.00 0.00 51 1011.2
20260505005523 70 186 1.0 9.0 0.00 0.00 0.00 51 1011.2
20260505005023 70 261 3.0 9.0 0.00 0.00 0.00 50 1011.3
20260505004523 70 244 1.0 7.0 0.00 0.00 0.00 50 1011.2
20260505004023 71 281 2.0 7.0 0.00 0.00 0.00 50 1011.2
20260505003522 71 194 2.0 8.0 0.00 0.00 0.00 50 1011.0
20260505003022 71 191 1.0 8.0 0.00 0.00 0.00 50 1011.0
20260505002524 71 155 2.0 8.0 0.00 0.00 0.00 50 1011.0
20260505002022 71 136 2.0 5.0 0.00 0.00 0.00 50 1011.1
20260505001522 71 184 1.0 5.0 0.00 0.00 0.00 51 1011.0
20260505001021 72 193 1.0 7.0 0.00 0.00 0.00 50 1010.9
20260505000521 72 192 2.0 8.0 0.00 0.00 0.00 49 1010.9
20260505000028 72 191 1.0 6.0 0.00 0.00 0.00 49 1010.9
20260504235521 72 169 0.0 4.0 0.00 0.00 0.00 48 1010.9
20260504235022 72 173 2.0 7.0 0.00 0.00 0.00 48 1011.0
20260504234525 73 294 3.0 8.0 0.00 0.00 0.00 48 1011.0
20260504234020 73 249 3.0 8.0 0.00 0.00 0.00 47 1010.8
20260504233521 73 230 2.0 8.0 0.00 0.00 0.00 47 1011.1
20260504233018 74 179 2.0 9.0 0.00 0.00 0.00 47 1011.1
20260504232517 74 195 4.0 14.0 0.00 0.00 0.00 46 1011.2
20260504232017 74 241 5.0 14.0 0.00 0.00 0.00 45 1011.2
20260504231516 74 159 3.0 11.0 0.00 0.00 0.00 46 1011.2
20260504231016 74 194 5.0 11.0 0.00 0.00 0.00 46 1011.4
20260504230516 75 197 3.0 10.0 0.00 0.00 0.00 46 1011.4
20260504230016 75 290 3.0 6.0 0.00 0.00 0.00 46 1011.5
20260504225515 75 200 3.0 11.0 0.00 0.00 0.00 46 1011.4
20260504225015 75 123 4.0 11.0 0.00 0.00 0.00 46 1011.3
20260504224515 76 151 2.0 7.0 0.00 0.00 0.00 46 1011.1
20260504224014 76 152 1.0 13.0 0.00 0.00 0.00 47 1011.2
20260504223516 76 305 3.0 13.0 0.00 0.00 0.00 45 1011.3
20260504223018 76 194 4.0 14.0 0.00 0.00 0.00 45 1011.3
20260504222514 77 126 3.0 14.0 0.00 0.00 0.00 45 1011.2
20260504222013 77 144 2.0 12.0 0.00 0.00 0.00 44 1011.2
20260504221513 77 176 6.0 12.0 0.00 0.00 0.00 44 1011.3
20260504221017 77 134 2.0 12.0 0.00 0.00 0.00 45 1011.2
20260504220514 77 224 4.0 12.0 0.00 0.00 0.00 44 1011.2
20260504220013 77 215 3.0 10.0 0.00 0.00 0.00 43 1011.2
20260504215513 77 284 3.0 11.0 0.00 0.00 0.00 42 1011.1
20260504215012 77 238 5.0 11.0 0.00 0.00 0.00 44 1011.1
20260504214511 77 181 2.0 11.0 0.00 0.00 0.00 45 1011.0
20260504214110 77 317 4.0 10.0 0.00 0.00 0.00 43 1011.1
20260504213511 77 211 2.0 8.0 0.00 0.00 0.00 44 1011.0
20260504213009 77 184 4.0 12.0 0.00 0.00 0.00 44 1011.1
20260504212510 77 171 4.0 12.0 0.00 0.00 0.00 45 1011.1
20260504212009 77 157 3.0 12.0 0.00 0.00 0.00 44 1011.0
20260504211510 78 173 3.0 9.0 0.00 0.00 0.00 46 1011.2
20260504211008 78 144 3.0 13.0 0.00 0.00 0.00 45 1011.2
20260504210507 78 218 2.0 13.0 0.00 0.00 0.00 45 1011.4
20260504210012 78 238 3.0 8.0 0.00 0.00 0.00 44 1011.3
20260504205506 78 207 2.0 11.0 0.00 0.00 0.00 46 1011.4
20260504205005 78 221 4.0 9.0 0.00 0.00 0.00 43 1011.5
20260504204508 78 197 2.0 9.0 0.00 0.00 0.00 46 1011.5
20260504204004 78 151 5.0 17.0 0.00 0.00 0.00 48 1011.6
20260504203504 77 236 4.0 17.0 0.00 0.00 0.00 48 1011.7
20260504203003 77 196 2.0 10.0 0.00 0.00 0.00 47 1011.8
20260504202502 77 158 3.0 9.0 0.00 0.00 0.00 47 1011.8
20260504202000 78 239 4.0 9.0 0.00 0.00 0.00 45 1011.9
20260504201500 78 199 3.0 10.0 0.00 0.00 0.00 44 1012.1
20260504201059 78 232 3.0 10.0 0.00 0.00 0.00 47 1012.1
20260504200559 78 265 4.0 11.0 0.00 0.00 0.00 45 1012.2
20260504200103 77 242 3.0 11.0 0.00 0.00 0.00 49 1012.2
20260504195558 76 250 4.0 12.0 0.00 0.00 0.00 49 1012.5
20260504195058 77 167 3.0 9.0 0.00 0.00 0.00 45 1012.4
20260504194605 77 234 3.0 10.0 0.00 0.00 0.00 47 1012.5
20260504194059 77 161 1.0 13.0 0.00 0.00 0.00 47 1012.2
20260504193559 78 164 3.0 13.0 0.00 0.00 0.00 50 1012.5
20260504193100 78 332 3.0 14.0 0.00 0.00 0.00 47 1012.5
20260504192555 77 151 5.0 14.0 0.00 0.00 0.00 47 1012.6
20260504192055 78 150 2.0 7.0 0.00 0.00 0.00 49 1012.6
20260504191609 77 221 1.0 12.0 0.00 0.00 0.00 56 1012.8
20260504191052 78 267 4.0 12.0 0.00 0.00 0.00 48 1012.8
20260504190554 78 157 3.0 9.0 0.00 0.00 0.00 51 1012.8
20260504190051 77 237 3.0 10.0 0.00 0.00 0.00 52 1013.0
20260504185549 77 277 4.0 10.0 0.00 0.00 0.00 49 1012.9
20260504185052 76 222 3.0 7.0 0.00 0.00 0.00 52 1013.0
20260504184549 76 160 2.0 9.0 0.00 0.00 0.00 48 1013.1
20260504184047 77 182 4.0 9.0 0.00 0.00 0.00 49 1013.2
20260504183546 76 335 3.0 13.0 0.00 0.00 0.00 50 1013.3
20260504183046 76 281 3.0 8.0 0.00 0.00 0.00 50 1013.3
20260504182548 76 165 4.0 8.0 0.00 0.00 0.00 49 1013.4
20260504182045 76 192 3.0 11.0 0.00 0.00 0.00 49 1013.4
20260504181548 76 37 3.0 11.0 0.00 0.00 0.00 53 1013.5
20260504181044 75 187 2.0 9.0 0.00 0.00 0.00 53 1013.4
20260504180543 76 280 3.0 10.0 0.00 0.00 0.00 52 1013.4
20260504180043 76 237 5.0 10.0 0.00 0.00 0.00 53 1013.6
20260504175543 76 184 2.0 12.0 0.00 0.00 0.00 53 1013.5
20260504175040 75 144 3.0 12.0 0.00 0.00 0.00 49 1013.5
20260504174539 75 169 3.0 8.0 0.00 0.00 0.00 51 1013.6
20260504174039 75 351 2.0 9.0 0.00 0.00 0.00 50 1013.6